Showing default

YAOGAN 19, 39410

Orbit data source: Space-Track

YAOGAN 19, 39410 is a payload satellite owned by PLA GAD (CN) in SSO that was launched on Wed, 20 Nov 2013 UTC via a CHANG ZHENG 4C launch vehicle from the Taiyaun Space Center, China (TSC). Payload-class satellites include a variety of spacecraft equipped with specific instruments for various scientific and technological missions. These include communications satellites like Starlink; space stations such as the ISS; scientific satellites like the Hubble; Earth observation satellites from companies like Planet Labs, Umbra, and HawkEye 360; GPS; miniature CubeSats for education and research; and military/defense satellites.

Loading next visibility...
Identifier
39410, 2013-065A
Orbit
SSO
Country
Flag of CNCN / PRC
Related business
Manufacturer
SAST
Mission
Operational Civil Imaging
Bus & Motor
JB-9, Unknown motor
Mass
1,040 kg wet, 1,040 kg dry
Launch date (UTC)
2013-11-20 (13 years ago)
Launch vehicle
CHANG ZHENG 4C
Launch site
Taiyaun Space Center, China (TSC)
Object type
Payload
Rocket body
Debris
Shape & HBR
Box + 2 Pan, 2.5 m
Radar Cross Section
4.795 m², Large (>1 m²)

Expand to show TLE details & history
Last TLE update: 1 day ago

TLE from 1 day ago
0 YAOGAN 19
1 39410U 13065A   26172.49861328 -.00000156  00000-0 -30048-3 0  9993
2 39410 100.1121 148.7056 0010185  78.0328 282.1926 13.15583210604211
Epoch: 2026-06-21T11:58Z
TLE epoch observation values (Epoch: 2026-06-21T11:58:00.187Z)
Latitude
-0.00009°
Longitude
59.50682°
Altitude
1,202.738 km
Speed
7.253 km/s
True Right ascension
09h 54m 49s
True Declination
0° 00' 00"
Sunlit
Object was in daylight at epoch
Visualization orbit readout
Latitude
Unknown
Longitude
Unknown
Altitude
Unknown
Speed
Unknown
Apparent Right ascension
Unknown
Apparent Declination
Unknown
Sunlit
N/A
Visualization observer readout
Local Sidereal Time
00:38:49
Azimuth
Unknown
Elevation
Unknown
Doppler factor
Unknown
Orbital elements
Apogee altitude
1,206.724 km
Perigee altitude
1,191.289 km
Semi-major axis
7,577.143 km
Eccentricity
0.00102
Inclination
100.1121°
RAAN
148.7056°
Arg. of periapsis
78.0328°
True anomaly
282.07849°
Mean anomaly
282.1926°
Eccentric anomaly
282.13555°
Mean motion
3.29067 °/min
Orbital period
109.4 mins
BSTAR
-0.00030048
Loading maneuver chart data...
Computing Atmospheric mass density...
Loading historical data...
Loading historical data...
Loading historical data...
Loading historical data...
Loading historical data...
Loading historical data...
Loading historical data...

Documentation

Showing up to 5 results
|